Location: ???????????
(54.6970°N, 39.1477°E)
Time: 18:10:01
(UTC+00:00)

Cosmos 44 Rocket - Pass Details

Date: 19 May 2025
Orbit: 651 x 728 km, 65.1° (Epoch: 21 June)

Event Time Altitude Azimuth Distance (km) Brightness Sun altitude
Rises 21:16:47 0° 312° (NW) 3,007 7.2 -15.3°
Reaches altitude 10° 21:19:10 10° 318° (NW) 2,101 6.5 -15.3°
Maximum altitude 21:23:47 48° 33° (NNE) 889 4.2 -15.3°
Drops below altitude 10° 21:28:29 10° 109° (ESE) 2,139 5.6 -15.3°
Sets 21:30:55 0° 115° (ESE) 3,066 6.4 -15.3°
